TimeEST,TemperatureF,Dew PointF,Humidity,Sea Level PressureIn,VisibilityMPH,Wind Direction,Wind SpeedMPH,Gust SpeedMPH,PrecipitationIn,Events,Conditions,WindDirDegrees,DateUTC
12:51 AM,32.0,26.1,79,30.41,10.0,WSW,8.1,-,N/A,,Clear,240,2013-01-08 05:51:00
1:51 AM,32.0,27.0,82,30.40,10.0,SW,8.1,-,N/A,,Clear,230,2013-01-08 06:51:00
2:51 AM,32.0,28.0,85,30.40,10.0,SW,6.9,-,N/A,,Clear,230,2013-01-08 07:51:00
3:51 AM,34.0,28.9,82,30.38,10.0,SW,10.4,-,N/A,,Clear,220,2013-01-08 08:51:00
4:51 AM,33.1,28.0,82,30.38,10.0,SW,11.5,-,N/A,,Clear,230,2013-01-08 09:51:00
5:51 AM,34.0,28.0,79,30.40,10.0,SW,10.4,-,N/A,,Clear,230,2013-01-08 10:51:00
6:51 AM,35.1,28.0,76,30.41,10.0,SW,13.8,-,N/A,,Partly Cloudy,220,2013-01-08 11:51:00
7:51 AM,36.0,28.9,76,30.43,10.0,SW,13.8,-,N/A,,Partly Cloudy,230,2013-01-08 12:51:00
8:51 AM,39.0,30.9,73,30.45,10.0,SW,12.7,-,N/A,,Partly Cloudy,230,2013-01-08 13:51:00
9:51 AM,41.0,30.9,67,30.45,10.0,WSW,11.5,-,N/A,,Partly Cloudy,240,2013-01-08 14:51:00
10:51 AM,43.0,30.9,62,30.43,10.0,WSW,10.4,-,N/A,,Scattered Clouds,240,2013-01-08 15:51:00
11:51 AM,45.0,30.0,56,30.38,10.0,SW,9.2,-,N/A,,Scattered Clouds,220,2013-01-08 16:51:00
12:51 PM,46.9,30.9,54,30.38,10.0,SW,13.8,-,N/A,,Mostly Cloudy,230,2013-01-08 17:51:00
1:51 PM,48.0,30.0,50,30.36,10.0,WSW,12.7,-,N/A,,Mostly Cloudy,250,2013-01-08 18:51:00
2:51 PM,48.0,30.9,52,30.38,10.0,WSW,11.5,-,N/A,,Scattered Clouds,250,2013-01-08 19:51:00
3:51 PM,46.9,30.9,54,30.37,10.0,WSW,12.7,-,N/A,,Mostly Cloudy,250,2013-01-08 20:51:00
4:51 PM,44.1,30.9,60,30.37,10.0,SW,10.4,-,N/A,,Mostly Cloudy,230,2013-01-08 21:51:00
5:51 PM,43.0,32.0,65,30.38,10.0,SW,11.5,-,N/A,,Mostly Cloudy,230,2013-01-08 22:51:00
6:51 PM,42.1,32.0,67,30.39,10.0,SW,12.7,-,N/A,,Mostly Cloudy,230,2013-01-08 23:51:00
7:51 PM,42.1,33.1,70,30.40,10.0,WSW,10.4,-,N/A,,Mostly Cloudy,240,2013-01-09 00:51:00
8:51 PM,41.0,33.1,73,30.40,10.0,WSW,11.5,-,N/A,,Mostly Cloudy,240,2013-01-09 01:51:00
9:51 PM,37.0,32.0,82,30.39,9.0,WSW,5.8,-,N/A,,Mostly Cloudy,240,2013-01-09 02:51:00
10:51 PM,35.1,30.0,82,30.41,9.0,SW,6.9,-,N/A,,Mostly Cloudy,230,2013-01-09 03:51:00
11:51 PM,36.0,30.9,82,30.41,10.0,SW,6.9,-,N/A,,Mostly Cloudy,230,2013-01-09 04:51:00